Las Vegas, NM

9:05 PM MDT on May 25, 2017 (GMT -0600)
Las Vegas Municipal

Weather History for KLVS - April, 2013

Change the Weather History Date:

Tuesday, April 23, 2013

  Actual Average Record
Temperature  
Mean Temperature 31 °F -  
Max Temperature 42 °F 66 °F 79 °F (1965)
Min Temperature 19 °F 34 °F 19 °F (2013)
Degree Days  
Heating Degree Days 34    
Moisture  
Dew Point 23 °F    
Average Humidity 72    
Maximum Humidity 93    
Minimum Humidity 43    
Precipitation  
Precipitation 0.01 in - - ()
Sea Level Pressure  
Sea Level Pressure 30.02 in    
Wind  
Wind Speed 11 mph (SE)    
Max Wind Speed 20 mph    
Max Gust Speed 25 mph    
Visibility 8 miles    
Events Fog , Snow    
Averages and records for this station are not official NWS values.
T = Trace of Precipitation, MM = Missing Value Source: NWS Daily Summary

Daily Weather History Graph

Daily Weather History Graph

Search for Another Location

Airport or City:

Trip Planner

Search our weather history database for the weather conditions in past years. The results will help you decide how hot, cold, wet, or windy it might be!

Date:

Astronomy

Apr. 23, 2013 Rise Set
Actual Time 6:17 AM MDT 7:40 PM MDT
Civil Twilight 5:50 AM MDT 8:07 PM MDT
Nautical Twilight 5:18 AM MDT 8:39 PM MDT
Astronomical Twilight 4:45 AM MDT 9:13 PM MDT
Moon 5:41 PM MDT (4/23) 4:42 AM MDT (4/23)
Length of Visible Light 14h 16m
Length of Day
13h 23m
Waxing Gibbous, 94% of the Moon is Illuminated
Apr 23
Waxing Gibbous
Apr 25
Full
May 2
Last Quarter
May 9
New
May 17
First Quarter

Hourly Weather History & Observations

Time (MDT) Temp. Windchill Dew Point Humidity Pressure Visibility Wind Dir Wind Speed Gust Speed Precip Events Conditions
12:53 AM 30.0 °F 20.5 °F 21.9 °F 72% 29.86 in 10.0 mi ENE 11.5 mph - N/A   Clear
1:30 AM 33.8 °F 24.3 °F 21.2 °F 60% 30.05 in 10.0 mi ENE 13.8 mph - N/A   Mostly Cloudy
1:53 AM 33.1 °F 23.4 °F 21.9 °F 64% 29.83 in 10.0 mi ENE 13.8 mph - N/A   Overcast
2:53 AM 32.0 °F 23.6 °F 21.0 °F 64% 29.82 in 10.0 mi East 10.4 mph - N/A   Overcast
4:53 AM 30.0 °F 20.5 °F 19.0 °F 64% 29.84 in 10.0 mi East 11.5 mph - N/A   Overcast
5:53 AM 28.9 °F 19.2 °F 19.0 °F 67% 29.84 in 10.0 mi ENE 11.5 mph - N/A   Overcast
6:53 AM 30.0 °F 23.2 °F 19.0 °F 64% 29.87 in 10.0 mi East 6.9 mph - N/A   Overcast
7:53 AM 30.0 °F 21.7 °F 19.9 °F 66% 29.91 in 10.0 mi South 9.2 mph - N/A   Overcast
8:53 AM 30.0 °F 22.4 °F 19.9 °F 66% 29.99 in 10.0 mi SSE 8.1 mph - N/A   Overcast
9:53 AM 32.0 °F 26.4 °F 21.0 °F 64% 30.00 in 10.0 mi SE 5.8 mph - N/A   Overcast
10:53 AM 35.1 °F 27.4 °F 21.0 °F 57% 30.00 in 10.0 mi SSE 10.4 mph 16.1 mph N/A   Overcast
11:22 AM 35.6 °F 28.6 °F 21.2 °F 56% 30.07 in 10.0 mi SSE 9.2 mph - N/A   Partly Cloudy
11:53 AM 36.0 °F 28.5 °F 21.0 °F 55% 30.00 in 10.0 mi SSE 10.4 mph 23.0 mph N/A   Partly Cloudy
1:53 PM 41.0 °F 33.5 °F 19.9 °F 43% 29.95 in 10.0 mi SSE 13.8 mph 23.0 mph N/A   Clear
2:53 PM 39.9 °F 34.5 °F 19.9 °F 45% 29.96 in 10.0 mi SE 8.1 mph 19.6 mph N/A   Clear
3:53 PM 41.0 °F 34.3 °F 19.9 °F 43% 29.96 in 10.0 mi South 11.5 mph 16.1 mph N/A   Clear
4:43 PM 35.6 °F 32.8 °F 21.2 °F 56% 30.06 in 2.5 mi Variable 3.5 mph - 0.00 in Snow Light Snow
4:50 PM 33.8 °F 25.8 °F 26.6 °F 75% 30.06 in 0.8 mi SW 10.4 mph - 0.00 in Snow Light Snow
4:51 PM 34.0 °F 27.2 °F 27.0 °F 75% 30.03 in 0.8 mi WSW 8.1 mph - 0.00 in Snow Light Snow
5:05 PM 32.0 °F 26.4 °F 28.4 °F 87% 30.07 in 0.8 mi West 5.8 mph - 0.00 in Snow Light Snow
5:28 PM 30.2 °F 19.3 °F 28.4 °F 93% 30.04 in 0.5 mi South 15.0 mph - 0.01 in Fog , Snow Snow
5:42 PM 32.0 °F 20.5 °F 28.4 °F 87% 30.04 in 1.8 mi South 18.4 mph - 0.01 in Snow Light Snow
5:45 PM 30.2 °F 17.8 °F 28.4 °F 93% 30.04 in 2.5 mi South 19.6 mph - 0.01 in Snow Light Snow
5:53 PM 32.0 °F 20.5 °F 28.9 °F 88% 30.02 in 6.0 mi South 18.4 mph - 0.01 in Snow Light Snow
6:01 PM 30.2 °F 18.5 °F 28.4 °F 93% 30.05 in 10.0 mi South 17.3 mph 25.3 mph N/A   Mostly Cloudy
6:08 PM 30.2 °F 18.9 °F 28.4 °F 93% 30.06 in 10.0 mi South 16.1 mph - N/A   Mostly Cloudy
6:13 PM 30.2 °F 18.1 °F 28.4 °F 93% 30.06 in 10.0 mi South 18.4 mph - N/A   Mostly Cloudy
6:20 PM 30.2 °F 18.1 °F 26.6 °F 86% 30.05 in 10.0 mi South 18.4 mph - N/A   Overcast
6:53 PM 30.9 °F 22.2 °F 26.1 °F 82% 30.06 in 10.0 mi SE 10.4 mph - N/A   Overcast
7:13 PM 30.2 °F 21.9 °F 24.8 °F 80% 30.11 in 10.0 mi ESE 9.2 mph - N/A   Overcast
7:53 PM 28.9 °F 18.6 °F 23.0 °F 78% 30.13 in 10.0 mi ESE 12.7 mph - N/A   Overcast
8:53 PM 28.0 °F 19.3 °F 21.0 °F 75% 30.20 in 10.0 mi East 9.2 mph - N/A   Overcast
9:53 PM 26.1 °F 18.4 °F 19.9 °F 78% 30.22 in 10.0 mi East 6.9 mph - N/A   Overcast
10:53 PM 24.1 °F - 19.0 °F 81% 30.19 in 10.0 mi Calm Calm - N/A   Mostly Cloudy
11:25 PM 21.2 °F 12.6 °F 15.8 °F 80% 30.17 in 10.0 mi South 6.9 mph - N/A   Scattered Clouds
11:53 PM 19.0 °F 10.0 °F 15.1 °F 85% 30.20 in 10.0 mi SSE 6.9 mph - N/A   Scattered Clouds